Home > Weather > Porbandar > Past weeks

Flag for India Weather for the Past 2 Weeks in Porbandar, Gujarat, India

Now
106 °F

Clear.


Feels Like: 109 °F
Forecast: 80 / 92 °F
Wind: 5 mph from Northwest

Location: Ahmadabad Airport

Current Time: Apr 30, 2016 at 3:32:05 PM

Latest Report: Apr 30, 2016 at 1:00 PM


Visibility: 4 mi

Pressure: 29.74 "Hg

Humidity: 25%

Dew Point: 63 °F

Location of PorbandarLocation

Historic Weather in Porbandar — Graph

°F

Porbandar Temperature Yesterday

Maximum temperature yesterday: 113 °F (at 2:30 PM)
Minimum temperature yesterday: 84 °F (at 3:30 AM)
Average temperature yesterday: 97 °F

High & Low Weather Summary for the Past Weeks

 TemperatureHumidityPressure
High113 °F (Apr 29, 2:30 PM)74% (Apr 23, 6:30 AM)29.89 "Hg (Apr 23, 6:30 AM)
Low77 °F (Apr 18, 6:00 AM)9% (Apr 29, 3:30 PM)29.59 "Hg (Apr 23, 5:00 PM)
Average92 °F37%29.74 "Hg
* Reported Apr 15 1:00 PM — Apr 30 1:00 PM, Porbandar, Weather by CustomWeather, © 2016

Note: Actual official high and low records may vary slightly from our data, if they occured in-between our weather recording intervals... More about our weather records

Advertising

Porbandar Weather History for the Previous 24 Hours

Scroll right to see more
 ConditionsComfort  
Time TempWeatherWind HumidityBarometerVisibility
1:00 PM
Sat, Apr 30
106 °FClear.5 mph25%29.74 "Hg4 mi
12:30 PM106 °FClear.7 mph23%29.74 "Hg4 mi
12:00 PM104 °FClear.7 mph26%29.77 "Hg4 mi
11:30 AM100 °FClear.7 mph33%29.77 "Hg4 mi
10:00 AM95 °FClear.5 mph41%29.80 "Hg2 mi
9:30 AM91 °FClear.6 mph49%29.80 "Hg2 mi
8:30 AM88 °FClear.5 mph52%29.80 "Hg2 mi
8:00 AM88 °FClear.5 mph55%29.80 "Hg2 mi
7:30 AM86 °FClear.5 mph55%29.77 "Hg2 mi
7:00 AM81 °FClear.No wind58%29.77 "Hg2 mi
6:30 AM81 °FClear.No wind58%29.74 "Hg2 mi
5:00 AM84 °FClear.3 mph48%29.71 "Hg2 mi
4:30 AM84 °FClear.3 mph45%29.71 "Hg2 mi
4:00 AM86 °FClear.3 mph40%29.71 "Hg2 mi
3:30 AM84 °FClear.5 mph37%29.71 "Hg2 mi
3:00 AM84 °FClear.6 mph37%29.71 "Hg2 mi
2:30 AM88 °FClear.7 mph33%29.71 "Hg2 mi
2:00 AM88 °FClear.6 mph35%29.71 "Hg2 mi
1:30 AM91 °FClear.8 mph32%29.71 "Hg2 mi
1:00 AM91 °FClear.7 mph34%29.71 "Hg2 mi
12:30 AM91 °FClear.7 mph36%29.74 "Hg2 mi
12:00 AM93 °FClear.8 mph36%29.74 "Hg2 mi
11:30 PM
Fri, Apr 29
93 °FClear.7 mph39%29.74 "Hg2 mi
11:00 PM91 °FClear.8 mph41%29.74 "Hg2 mi
10:30 PM95 °FClear.9 mph34%29.74 "Hg2 mi
10:00 PM95 °FClear.8 mph34%29.74 "Hg2 mi
9:30 PM95 °FClear.9 mph32%29.71 "Hg2 mi
9:00 PM97 °FClear.8 mph32%29.71 "Hg2 mi
8:30 PM97 °FClear.7 mph42%29.71 "Hg2 mi
8:00 PM100 °FClear.No wind16%29.68 "Hg2 mi
7:30 PM100 °FClear.No wind16%29.68 "Hg2 mi
7:00 PM106 °FPassing clouds.2 mph13%29.65 "Hg3 mi
6:00 PM111 °FClear.6 mph11%29.65 "Hg4 mi
5:30 PM113 °FClear.5 mph10%29.62 "Hg4 mi
5:00 PM113 °FClear.6 mph11%29.62 "Hg4 mi
4:30 PM113 °FClear.6 mph11%29.62 "Hg4 mi
4:00 PM113 °FClear.5 mph10%29.65 "Hg4 mi
3:30 PM113 °FClear.9 mph9%29.65 "Hg4 mi
3:00 PM113 °FClear.7 mph12%29.65 "Hg4 mi
Weather by CustomWeather, © 2016

See weather overviewHow to use our weather pages